| time (UTC) | temp F | wind direction | speed MPH | gust MPH | rain 1hr in | rain 24hr in | rain mn in | humidity % | barometer mb |
| 20260506082025 | 49 | 45 | 5.0 | 12.0 | 0.00 | 0.06 | 0.00 | 79 | 1008.4 |
| 20260506081025 | 49 | 45 | 4.0 | 10.0 | 0.00 | 0.06 | 0.00 | 79 | 1008.4 |
| 20260506073025 | 49 | 68 | 3.0 | 9.0 | 0.00 | 0.09 | 0.00 | 79 | 1008.3 |
| 20260506072025 | 48 | 68 | 5.0 | 11.0 | 0.00 | 0.09 | 0.00 | 79 | 1008.3 |
| 20260506071025 | 48 | 45 | 3.0 | 9.0 | 0.00 | 0.09 | 0.00 | 79 | 1008.3 |
| 20260506062025 | 47 | 45 | 5.0 | 11.0 | 0.00 | 0.11 | 0.00 | 79 | 1008.2 |
| 20260506061025 | 47 | 45 | 4.0 | 10.0 | 0.00 | 0.11 | 0.00 | 80 | 1008.3 |
| 20260506051025 | 46 | 45 | 5.0 | 14.0 | 0.00 | 0.17 | 0.00 | 79 | 1008.3 |
| 20260506045024 | 46 | 68 | 4.0 | 10.0 | 0.00 | 0.22 | 0.00 | 78 | 1008.4 |
| 20260506044025 | 46 | 45 | 3.0 | 12.0 | 0.00 | 0.22 | 0.00 | 77 | 1008.5 |
| 20260506043024 | 46 | 68 | 4.0 | 9.0 | 0.00 | 0.22 | 0.00 | 77 | 1008.5 |
| 20260506042024 | 46 | 68 | 4.0 | 10.0 | 0.00 | 0.22 | 0.00 | 77 | 1008.5 |
| 20260506041025 | 46 | 68 | 2.0 | 8.0 | 0.00 | 0.22 | 0.00 | 77 | 1008.5 |
| 20260506040044 | 46 | 68 | 3.0 | 9.0 | 0.00 | 0.22 | 0.00 | 77 | 1008.4 |
| 20260506035025 | 46 | 45 | 2.0 | 7.0 | 0.00 | 0.23 | 0.00 | 77 | 1008.4 |
| 20260506034025 | 46 | 45 | 5.0 | 11.0 | 0.00 | 0.23 | 0.00 | 76 | 1008.4 |
| 20260506033024 | 46 | 45 | 3.0 | 9.0 | 0.00 | 0.23 | 0.00 | 76 | 1008.4 |
| 20260506032045 | 46 | 45 | 4.0 | 9.0 | 0.00 | 0.23 | 0.00 | 76 | 1008.5 |
| 20260506031024 | 46 | 45 | 5.0 | 11.0 | 0.00 | 0.23 | 0.00 | 76 | 1008.6 |
| 20260506030024 | 46 | 45 | 4.0 | 9.0 | 0.00 | 0.23 | 0.00 | 76 | 1008.6 |
| 20260506025024 | 46 | 68 | 5.0 | 9.0 | 0.00 | 0.23 | 0.00 | 76 | 1008.6 |
| 20260506024024 | 46 | 68 | 4.0 | 9.0 | 0.00 | 0.23 | 0.00 | 77 | 1008.8 |
| 20260506023024 | 46 | 68 | 4.0 | 10.0 | 0.00 | 0.23 | 0.00 | 78 | 1008.8 |
| 20260506022025 | 46 | 68 | 2.0 | 6.0 | 0.00 | 0.23 | 0.00 | 79 | 1009.0 |
| 20260506021024 | 46 | 45 | 3.0 | 10.0 | 0.00 | 0.23 | 0.00 | 79 | 1009.1 |
| 20260506020024 | 46 | 68 | 3.0 | 6.0 | 0.00 | 0.23 | 0.00 | 80 | 1009.2 |
| 20260506015024 | 46 | 45 | 3.0 | 10.0 | 0.00 | 0.23 | 0.00 | 79 | 1009.3 |
| 20260506014024 | 46 | 23 | 3.0 | 9.0 | 0.00 | 0.23 | 0.00 | 80 | 1009.3 |
| 20260506013024 | 46 | 45 | 3.0 | 6.0 | 0.00 | 0.23 | 0.00 | 80 | 1009.2 |
| 20260506012024 | 46 | 45 | 2.0 | 7.0 | 0.00 | 0.23 | 0.00 | 80 | 1009.1 |
| 20260506011024 | 46 | 0.0 | 0.0 | 0.00 | 0.23 | 0.00 | 80 | 1009.3 | |
| 20260506010024 | 46 | 0.0 | 0.0 | 0.00 | 0.23 | 0.00 | 80 | 1009.5 | |
| 20260506005024 | 46 | 0.0 | 0.0 | 0.00 | 0.23 | 0.00 | 80 | 1009.6 | |
| 20260506004024 | 46 | 0.0 | 3.0 | 0.00 | 0.23 | 0.00 | 80 | 1009.6 | |
| 20260506003024 | 46 | 68 | 1.0 | 6.0 | 0.00 | 0.23 | 0.00 | 80 | 1009.6 |
| 20260506002024 | 46 | 45 | 2.0 | 7.0 | 0.00 | 0.23 | 0.00 | 80 | 1009.7 |
| 20260506001024 | 46 | 45 | 3.0 | 9.0 | 0.00 | 0.23 | 0.00 | 80 | 1009.9 |
| 20260506000024 | 46 | 68 | 2.0 | 8.0 | 0.00 | 0.23 | 0.00 | 81 | 1010.0 |
| 20260505235024 | 46 | 68 | 2.0 | 6.0 | 0.00 | 0.23 | 0.00 | 82 | 1010.0 |
| 20260505234024 | 45 | 68 | 2.0 | 5.0 | 0.00 | 0.23 | 0.00 | 83 | 1009.9 |
| 20260505233024 | 45 | 68 | 3.0 | 11.0 | 0.00 | 0.23 | 0.00 | 85 | 1009.8 |
| 20260505232024 | 45 | 45 | 3.0 | 9.0 | 0.00 | 0.23 | 0.00 | 87 | 1009.9 |
| 20260505231024 | 44 | 45 | 4.0 | 9.0 | 0.00 | 0.23 | 0.00 | 89 | 1010.0 |
| 20260505230024 | 44 | 68 | 6.0 | 11.0 | 0.00 | 0.23 | 0.00 | 91 | 1009.9 |
| 20260505225024 | 44 | 23 | 1.0 | 4.0 | 0.00 | 0.23 | 0.00 | 92 | 1010.1 |
| 20260505224024 | 44 | 45 | 1.0 | 4.0 | 0.00 | 0.23 | 0.00 | 92 | 1010.1 |
| 20260505223024 | 44 | 45 | 1.0 | 4.0 | 0.00 | 0.23 | 0.00 | 92 | 1010.3 |
| 20260505222104 | 44 | 45 | 2.0 | 5.0 | 0.00 | 0.23 | 0.00 | 92 | 1010.3 |
| 20260505221023 | 44 | 45 | 1.0 | 7.0 | 0.00 | 0.23 | 0.00 | 93 | 1010.4 |
| 20260505220024 | 44 | 45 | 2.0 | 6.0 | 0.00 | 0.23 | 0.23 | 93 | 1010.5 |
| 20260505215024 | 45 | 45 | 2.0 | 5.0 | 0.00 | 0.23 | 0.23 | 93 | 1010.4 |
| 20260505214024 | 45 | 45 | 1.0 | 3.0 | 0.00 | 0.23 | 0.23 | 93 | 1010.6 |
| 20260505213023 | 45 | 45 | 1.0 | 3.0 | 0.00 | 0.23 | 0.23 | 93 | 1010.7 |
| 20260505212043 | 45 | 0.0 | 3.0 | 0.00 | 0.23 | 0.23 | 93 | 1010.6 | |
| 20260505211023 | 46 | 0.0 | 2.0 | 0.00 | 0.23 | 0.23 | 93 | 1010.6 | |
| 20260505210104 | 46 | 0.0 | 2.0 | 0.00 | 0.23 | 0.23 | 93 | 1010.6 | |
| 20260505205023 | 46 | 0.0 | 2.0 | 0.00 | 0.23 | 0.23 | 93 | 1010.6 | |
| 20260505204024 | 47 | 0.0 | 1.0 | 0.00 | 0.23 | 0.23 | 92 | 1010.6 | |
| 20260505203024 | 47 | 0.0 | 1.0 | 0.00 | 0.23 | 0.23 | 92 | 1010.6 | |
| 20260505202025 | 47 | 0.0 | 0.0 | 0.00 | 0.23 | 0.23 | 91 | 1010.4 | |
| 20260505201025 | 48 | 0.0 | 1.0 | 0.00 | 0.23 | 0.23 | 91 | 1010.3 | |
| 20260505200024 | 48 | 0.0 | 0.0 | 0.00 | 0.23 | 0.23 | 91 | 1010.2 | |
| 20260505195024 | 48 | 0.0 | 1.0 | 0.00 | 0.23 | 0.23 | 91 | 1010.2 | |
| 20260505194024 | 49 | 68 | 1.0 | 3.0 | 0.00 | 0.23 | 0.23 | 90 | 1010.2 |
| 20260505193044 | 49 | 0.0 | 0.0 | 0.00 | 0.23 | 0.23 | 90 | 1010.2 | |
| 20260505192024 | 50 | 45 | 1.0 | 3.0 | 0.00 | 0.23 | 0.23 | 89 | 1010.2 |
| 20260505191024 | 50 | 45 | 1.0 | 4.0 | 0.00 | 0.23 | 0.23 | 89 | 1010.2 |
| 20260505190024 | 51 | 45 | 1.0 | 4.0 | 0.00 | 0.23 | 0.23 | 88 | 1010.2 |
| 20260505185024 | 51 | 45 | 1.0 | 4.0 | 0.00 | 0.23 | 0.23 | 88 | 1010.3 |
| 20260505184024 | 52 | 45 | 1.0 | 5.0 | 0.00 | 0.23 | 0.23 | 88 | 1010.2 |
| 20260505183044 | 52 | 68 | 2.0 | 5.0 | 0.00 | 0.23 | 0.23 | 88 | 1010.3 |
| 20260505182024 | 52 | 68 | 2.0 | 7.0 | 0.00 | 0.23 | 0.23 | 88 | 1010.3 |
| 20260505181024 | 52 | 45 | 1.0 | 4.0 | 0.00 | 0.23 | 0.23 | 87 | 1010.4 |
| 20260505180024 | 52 | 68 | 2.0 | 6.0 | 0.00 | 0.23 | 0.23 | 87 | 1010.4 |
| 20260505175025 | 52 | 68 | 3.0 | 8.0 | 0.00 | 0.23 | 0.23 | 87 | 1010.4 |
| 20260505174024 | 52 | 45 | 2.0 | 6.0 | 0.00 | 0.23 | 0.23 | 87 | 1010.4 |
| 20260505173024 | 53 | 68 | 3.0 | 8.0 | 0.00 | 0.23 | 0.23 | 87 | 1010.5 |
| 20260505172024 | 53 | 68 | 2.0 | 8.0 | 0.00 | 0.23 | 0.23 | 87 | 1010.5 |
| 20260505171024 | 53 | 90 | 4.0 | 9.0 | 0.00 | 0.23 | 0.23 | 87 | 1010.6 |
| 20260505170044 | 53 | 0.0 | 0.0 | 0.00 | 0.23 | 0.23 | 87 | 1010.6 | |
| 20260505165024 | 53 | 68 | 3.0 | 10.0 | 0.00 | 0.23 | 0.23 | 87 | 1010.5 |
| 20260505164044 | 53 | 45 | 1.0 | 7.0 | 0.00 | 0.23 | 0.23 | 87 | 1010.7 |
| 20260505163024 | 53 | 45 | 3.0 | 10.0 | 0.00 | 0.23 | 0.23 | 87 | 1010.6 |
| 20260505162024 | 53 | 45 | 3.0 | 8.0 | 0.00 | 0.23 | 0.23 | 88 | 1010.7 |
| 20260505161024 | 53 | 68 | 1.0 | 6.0 | 0.00 | 0.23 | 0.23 | 88 | 1010.8 |
| 20260505153044 | 52 | 45 | 1.0 | 5.0 | 0.00 | 0.23 | 0.23 | 88 | 1011.0 |
| 20260505152044 | 53 | 0.0 | 3.0 | 0.00 | 0.23 | 0.23 | 88 | 1011.0 | |
| 20260505151024 | 53 | 45 | 1.0 | 4.0 | 0.00 | 0.23 | 0.23 | 87 | 1011.1 |
| 20260505125024 | 52 | 45 | 4.0 | 9.0 | 0.00 | 0.23 | 0.23 | 92 | 1011.5 |
| 20260505124024 | 52 | 68 | 6.0 | 11.0 | 0.00 | 0.23 | 0.23 | 92 | 1011.6 |
| 20260505123024 | 52 | 68 | 4.0 | 11.0 | 0.00 | 0.23 | 0.23 | 92 | 1011.4 |
| 20260505122023 | 52 | 45 | 4.0 | 9.0 | 0.00 | 0.23 | 0.23 | 93 | 1011.5 |
| 20260505121023 | 52 | 68 | 5.0 | 10.0 | 0.00 | 0.23 | 0.23 | 94 | 1011.6 |
| 20260505120024 | 51 | 45 | 3.0 | 10.0 | 0.00 | 0.23 | 0.23 | 94 | 1011.6 |
| 20260505115044 | 51 | 45 | 3.0 | 10.0 | 0.00 | 0.23 | 0.23 | 94 | 1011.5 |
| 20260505114024 | 51 | 68 | 2.0 | 6.0 | 0.00 | 0.23 | 0.23 | 95 | 1011.6 |
| 20260505113025 | 51 | 45 | 3.0 | 7.0 | 0.00 | 0.23 | 0.23 | 95 | 1011.7 |
| 20260505112025 | 51 | 23 | 3.0 | 9.0 | 0.00 | 0.23 | 0.23 | 95 | 1011.7 |
| 20260505111025 | 50 | 45 | 2.0 | 5.0 | 0.00 | 0.23 | 0.23 | 96 | 1011.7 |
| 20260505102026 | 50 | 45 | 4.0 | 11.0 | 0.02 | 0.23 | 0.23 | 96 | 1011.6 |
| 20260505101025 | 51 | 45 | 2.0 | 5.0 | 0.02 | 0.23 | 0.23 | 96 | 1011.8 |
| 20260505100106 | 51 | 0 | 4.0 | 10.0 | 0.02 | 0.23 | 0.23 | 96 | 1011.8 |
| 20260505095025 | 51 | 0 | 5.0 | 10.0 | 0.02 | 0.22 | 0.22 | 97 | 1011.9 |
| 20260505094025 | 50 | 23 | 4.0 | 9.0 | 0.02 | 0.21 | 0.21 | 96 | 1011.8 |
| 20260505093105 | 51 | 23 | 3.0 | 9.0 | 0.02 | 0.21 | 0.21 | 96 | 1011.9 |
| 20260505092025 | 51 | 23 | 2.0 | 9.0 | 0.03 | 0.21 | 0.21 | 97 | 1011.8 |
| 20260505091025 | 51 | 45 | 2.0 | 7.0 | 0.03 | 0.20 | 0.20 | 97 | 1011.8 |
| 20260505090025 | 50 | 0 | 3.0 | 8.0 | 0.04 | 0.20 | 0.20 | 96 | 1011.7 |
| 20260505085025 | 50 | 338 | 4.0 | 10.0 | 0.03 | 0.20 | 0.20 | 96 | 1011.7 |
| 20260505084025 | 50 | 0 | 3.0 | 8.0 | 0.04 | 0.20 | 0.20 | 97 | 1011.7 |
| 20260505083025 | 50 | 0 | 4.0 | 9.0 | 0.03 | 0.19 | 0.19 | 96 | 1011.7 |